EW6341 Weather Reports


time (UTC)temp
F
wind
direction
speed
knots
gust
knots
rain 1hr
in
rain 24hr
in
rain mn
in
humidity
%
barometer
mb
20260504130510 79 101 0.0 0.0 0.00 0.00 0.00 1 1013.4
20260504110709 0 0.0 0.0 0.00 0.00 0.00 1012.3
20260504110205 0 0.0 0.0 0.00 0.00 0.00 1012.2
20260504100313 80 101 0.0 0.0 0.00 0.00 0.00 1 1012.2
20260504081404 82 101 0.0 0.0 0.00 0.00 0.00 1 1012.1
20260504080902 82 100 0.0 0.0 0.00 0.00 0.00 1 1012.0
20260504080401 82 100 0.0 0.0 0.00 0.00 0.00 1 1012.1
20260504080136 83 101 0.0 0.0 0.00 0.00 0.00 1 1012.1
20260504070341 83 101 0.0 0.0 0.00 0.00 0.00 1 1012.8
20260504070329 83 100 0.0 0.0 0.00 0.00 0.00 1 1012.8
20260504050752 83 109 0.0 0.0 0.00 0.00 0.00 1 1013.9
20260504050519 83 109 0.0 0.0 0.00 0.00 0.00 1 1013.9
20260504045742 83 109 0.0 0.0 0.00 0.00 0.00 1 1013.9
20260504045235 83 109 0.0 0.0 0.00 0.00 0.00 1 1013.9
20260504044729 83 109 0.0 0.0 0.00 0.00 0.00 1 1013.9
20260504044227 83 109 0.0 0.0 0.00 0.00 0.00 1 1014.1
20260504043724 83 109 0.0 0.0 0.00 0.00 0.00 1 1014.0
20260504043223 83 109 0.0 0.0 0.00 0.00 0.00 1 1014.0
20260504042721 83 109 0.0 0.0 0.00 0.00 0.00 1 1014.0
20260504042220 83 110 0.0 0.0 0.00 0.00 0.00 1 1014.1
20260504041953 83 109 0.0 0.0 0.00 0.00 0.00 1 1014.1
20260504041217 83 109 0.0 0.0 0.00 0.00 0.00 1 1014.0
20260504040732 83 101 0.0 0.0 0.00 0.00 0.00 1 1013.8
20260504040718 83 109 0.0 0.0 0.00 0.00 0.00 1 1013.9
20260504035949 84 93 0.0 0.0 0.00 0.00 0.00 1 1013.8
20260504035217 84 107 0.0 0.0 0.00 0.00 0.00 1 1013.9
20260504034717 84 109 0.0 0.0 0.00 0.00 0.00 1 1013.8
20260504034217 84 108 0.0 0.0 0.00 0.00 0.00 1 1013.9
20260504033719 84 113 0.0 0.0 0.00 0.00 0.00 1 1013.8
20260504033217 84 98 0.0 0.0 0.00 0.00 0.00 1 1013.7
20260504032718 84 91 0.0 0.0 0.00 0.00 0.00 1 1013.7
20260504032449 84 94 0.0 0.0 0.00 0.00 0.00 1 1013.7
20260504031717 84 98 0.0 0.0 0.00 0.00 0.00 1 1013.6
20260504031217 84 98 0.0 0.0 0.00 0.00 0.00 1 1013.6
20260504030948 84 96 0.0 0.0 0.00 0.00 0.00 1 1013.5
20260504030217 84 104 0.0 0.0 0.00 0.00 0.00 1 1013.6
20260504025947 84 96 0.0 0.0 0.00 0.00 0.00 1 1013.6
20260504025839 84 85 0.0 0.0 0.00 0.00 0.00 1 1013.5
20260504024717 84 85 0.0 0.0 0.00 0.00 0.00 1 1013.4
20260504024217 84 93 0.0 0.0 0.00 0.00 0.00 1 1013.4
20260504023717 84 93 0.0 0.0 0.00 0.00 0.00 1 1013.3
20260504023219 84 93 0.0 0.0 0.00 0.00 0.00 1 1013.3
20260504022717 84 93 0.0 0.0 0.00 0.00 0.00 1 1013.2
20260504022447 84 93 0.0 0.0 0.00 0.00 0.00 1 1013.2
20260504021710 84 93 0.0 0.0 0.00 0.00 0.00 1 1013.2
20260504021204 84 93 0.0 0.0 0.00 0.00 0.00 1 1013.2
20260504021056 84 93 0.0 0.0 0.00 0.00 0.00 1 1013.1
20260504020946 84 93 0.0 0.0 0.00 0.00 0.00 1 1013.1
20260504015701 84 93 0.0 0.0 0.00 0.00 0.00 1 1013.0
20260504015437 84 92 0.0 0.0 0.00 0.00 0.00 1 1013.0
20260504014659 84 93 0.0 0.0 0.00 0.00 0.00 1 1013.0
20260504014200 84 92 0.0 0.0 0.00 0.00 0.00 1 1013.1
20260504013657 84 92 0.0 0.0 0.00 0.00 0.00 1 1013.1
20260504013155 84 92 0.0 0.0 0.00 0.00 0.00 1 1013.0
20260504012654 84 92 0.0 0.0 0.00 0.00 0.00 1 1013.1
20260504012153 84 92 0.0 0.0 0.00 0.00 0.00 1 1013.0
20260504011653 85 92 0.0 0.0 0.00 0.00 0.00 1 1013.0
20260504011151 85 92 0.0 0.0 0.00 0.00 0.00 1 1013.0
20260504010652 85 92 0.0 0.0 0.00 0.00 0.00 1 1012.9
20260504010151 85 92 0.0 0.0 0.00 0.00 0.00 1 1012.9
20260504005651 85 82 0.0 0.0 0.00 0.00 0.00 1 1012.8
20260504005147 85 82 0.0 0.0 0.00 0.00 0.00 1 1012.7
20260504004648 85 86 0.0 0.0 0.00 0.00 0.00 1 1012.6
20260504004413 85 92 0.0 0.0 0.00 0.00 0.00 1 1012.5
20260504003635 85 56 0.0 0.0 0.00 0.00 0.00 1 1012.7
20260504003129 85 70 0.0 0.0 0.00 0.00 0.00 1 1012.7
20260504002623 85 82 0.0 0.0 0.00 0.00 0.00 1 1012.7
20260504002119 85 83 0.0 0.0 0.00 0.00 0.00 1 1012.7
20260504001611 85 53 0.0 0.0 0.00 0.00 0.00 1 1012.6
20260504001106 85 86 0.0 0.0 0.00 0.00 0.00 1 1012.6
20260504000600 85 89 0.0 0.0 0.00 0.00 0.00 1 1012.7
20260504000053 85 91 0.0 0.0 0.00 0.00 0.00 1 1012.5
20260503235549 85 67 0.0 0.0 0.00 0.00 0.00 1 1012.3
20260503235314 85 79 0.0 0.0 0.00 0.00 0.00 1 1012.3
20260503234536 85 79 0.0 0.0 0.00 0.00 0.00 1 1012.2
20260503234030 85 52 0.0 0.0 0.00 0.00 0.00 1 1012.1
20260503233519 85 77 0.0 0.0 0.00 0.00 0.00 1 1011.9
20260503233014 85 72 0.0 0.0 0.00 0.00 0.00 1 1011.7
20260503232740 85 67 0.0 0.0 0.00 0.00 0.00 1 1011.7
20260503232233 86 89 0.0 0.0 0.00 0.00 0.00 1 1011.6
20260503231455 86 89 0.0 0.0 0.00 0.00 0.00 1 1011.3
20260503231222 86 96 0.0 0.0 0.00 0.00 0.00 1 1011.5
20260503230444 86 58 0.0 0.0 0.00 0.00 0.00 1 1011.4
20260503225938 86 72 0.0 0.0 0.00 0.00 0.00 1 1011.0
20260503225431 86 59 0.0 0.0 0.00 0.00 0.00 1 1010.8
20260503225157 86 86 0.0 0.0 0.00 0.00 0.00 1 1010.8
20260503224420 87 99 0.0 0.0 0.00 0.00 0.00 1 1010.8
20260503223913 87 74 0.0 0.0 0.00 0.00 0.00 1 1010.9
20260503223407 87 98 0.0 0.0 0.00 0.00 0.00 1 1010.9
20260503222904 87 79 0.0 0.0 0.00 0.00 0.00 1 1010.8
20260503222355 87 97 0.0 0.0 0.00 0.00 0.00 1 1010.9
20260503221850 87 84 0.0 0.0 0.00 0.00 0.00 1 1010.9
20260503221344 87 83 0.0 0.0 0.00 0.00 0.00 1 1010.7
20260503220840 87 86 0.0 0.0 0.00 0.00 0.00 1 1010.7
20260503220332 87 108 0.0 0.0 0.00 0.00 0.00 1 1010.7
20260503220057 87 65 0.0 0.0 0.00 0.00 0.00 1 1010.8
20260503215552 87 44 0.0 0.0 0.00 0.00 0.00 1 1010.8
20260503215048 87 54 0.0 0.0 0.00 0.00 0.00 1 1010.7
20260503214307 87 89 0.0 0.0 0.00 0.00 0.00 1 1010.8
20260503213801 87 46 0.0 0.0 0.00 0.00 0.00 1 1010.8
20260503213256 87 90 0.0 0.0 0.00 0.00 0.00 1 1010.9
20260503212750 88 71 0.0 0.0 0.00 0.00 0.00 1 1011.0
20260503212245 88 80 0.0 0.0 0.00 0.00 0.00 1 1011.0
20260503211739 88 68 0.0 0.0 0.00 0.00 0.00 1 1011.0
20260503211230 88 56 0.0 0.0 0.00 0.00 0.00 1 1011.1
20260503210729 88 59 0.0 0.0 0.00 0.00 0.00 1 1011.0
20260503210230 88 75 0.0 0.0 0.00 0.00 0.00 1 1011.1
20260503205729 88 62 0.0 0.0 0.00 0.00 0.00 1 1011.2
20260503205230 88 82 0.0 0.0 0.00 0.00 0.00 1 1011.2
20260503204729 88 95 0.0 0.0 0.00 0.00 0.00 1 1011.1
20260503204229 88 67 0.0 0.0 0.00 0.00 0.00 1 1011.2
20260503204000 88 55 0.0 0.0 0.00 0.00 0.00 1 1011.2
20260503203229 89 77 0.0 0.0 0.00 0.00 0.00 1 1011.3
20260503202728 88 113 0.0 0.0 0.00 0.00 0.00 1 1011.2
20260503202500 88 41 0.0 0.0 0.00 0.00 0.00 1 1011.2
20260503201727 89 91 0.0 0.0 0.00 0.00 0.00 1 1011.3
20260503201228 89 44 0.0 0.0 0.00 0.00 0.00 6 1011.3
20260503200725 89 62 0.0 0.0 0.00 0.00 0.00 7 1011.4
20260503200225 90 65 0.0 0.0 0.00 0.00 0.00 6 1011.4
20260503195726 90 64 0.0 0.0 0.00 0.00 0.00 14 1011.5
20260503195226 90 72 0.0 0.0 0.00 0.00 0.00 12 1011.7
20260503194719 90 39 0.0 0.0 0.00 0.00 0.00 11 1011.7
20260503194215 90 61 0.0 0.0 0.00 0.00 0.00 16 1011.8
20260503193707 91 97 0.0 0.0 0.00 0.00 0.00 17 1011.8
20260503193200 91 60 0.0 0.0 0.00 0.00 0.00 27 1011.9
20260503192656 91 87 0.0 0.0 0.00 0.00 0.00 27 1012.0
20260503192154 92 37 0.0 0.0 0.00 0.00 0.00 29 1012.0
20260503191654 92 19 0.0 0.0 0.00 0.00 0.00 35 1012.1
20260503191155 92 82 0.0 0.0 0.00 0.00 0.00 35 1012.2
20260503190656 92 98 0.0 0.0 0.00 0.00 0.00 36 1012.4
20260503190444 91 35 0.0 0.0 0.00 0.00 0.00 35 1012.5
20260503190154 92 41 0.0 0.0 0.00 0.00 0.00 34 1012.5
20260503185156 91 34 0.0 0.0 0.00 0.00 0.00 40 1012.6
20260503184655 91 23 0.0 0.0 0.00 0.00 0.00 37 1012.7
20260503184156 91 71 0.0 0.0 0.00 0.00 0.00 42 1012.7
20260503183710 91 22 0.0 0.0 0.00 0.00 0.00 46 1012.8
20260503183656 91 57 0.0 0.0 0.00 0.00 0.00 45 1012.8
20260503182654 91 53 0.0 0.0 0.00 0.00 0.00 41 1012.9
20260503182427 90 51 0.0 0.0 0.00 0.00 0.00 48 1013.0
20260503181652 91 88 0.0 0.0 0.00 0.00 0.00 41 1013.0
20260503181153 91 51 0.0 0.0 0.00 0.00 0.00 35 1013.1
20260503180653 90 82 0.0 0.0 0.00 0.00 0.00 34 1013.1
20260503180154 91 40 0.0 0.0 0.00 0.00 0.00 31 1013.2
20260503175654 91 65 0.0 0.0 0.00 0.00 0.00 43 1013.2
20260503175426 92 47 0.0 0.0 0.00 0.00 0.00 46 1013.3
20260503174648 92 77 0.0 0.0 0.00 0.00 0.00 39 1013.5
20260503174151 92 97 0.0 0.0 0.00 0.00 0.00 44 1013.5
20260503173649 92 68 0.0 0.0 0.00 0.00 0.00 40 1013.5
20260503173150 92 50 0.0 0.0 0.00 0.00 0.00 37 1013.4
20260503172920 91 20 0.0 0.0 0.00 0.00 0.00 38 1013.4
20260503172149 91 85 0.0 0.0 0.00 0.00 0.00 39 1013.6
20260503171920 91 64 0.0 0.0 0.00 0.00 0.00 32 1013.6
20260503171150 91 51 0.0 0.0 0.00 0.00 0.00 35 1013.6
20260503170648 91 57 0.0 0.0 0.00 0.00 0.00 31 1013.6
20260503170147 91 71 0.0 0.0 0.00 0.00 0.00 38 1013.7
20260503160139 91 0 0.0 0.0 0.00 0.00 0.00 1 1013.8
20260503150806 87 0 0.0 0.0 0.00 0.00 0.00 1 1013.8